Weather History for Jefferson, NC

Change the Weather History Date:

Sunday, December 2, 2012

  Actual Average Record
Temperature  
Mean Temperature 52 °F -  
Max Temperature 60 °F 48 °F 86 °F (2003)
Min Temperature 44 °F 25 °F 15 °F (1971)
Degree Days  
Heating Degree Days 13    
Growing Degree Days 2 (Base 50)    
Moisture  
Dew Point 40 °F    
Average Humidity 70    
Maximum Humidity 87    
Minimum Humidity 39    
Precipitation  
Precipitation 0.00 in - - ()
Sea Level Pressure  
Sea Level Pressure 30.30 in    
Wind  
Wind Speed 1 mph (SSW)    
Max Wind Speed 7 mph    
Max Gust Speed -    
Visibility 10 miles    
Events      
Averages and records for this station are not official NWS values.
T = Trace of Precipitation, MM = Missing Value Source: NWS Daily Summary

Daily Weather History Graph

Daily Weather History Graph

Search for Another Location

Airport:

Trip Planner

Search our weather history database for the weather conditions in past years. The results will help you decide how hot, cold, wet, or windy it might be!

Date:

Astronomy

Dec. 02, 2012 Rise Set
Actual Time 7:20 AM EST 5:10 PM EST
Civil Twilight 6:51 AM EST 5:38 PM EST
Nautical Twilight 6:19 AM EST 6:10 PM EST
Astronomical Twilight 5:48 AM EST 6:41 PM EST
Moon 8:53 PM EST (12/2) 10:11 AM EST (12/2)
Length of Visible Light 10h 46m
Length of Day
9h 50m
Waning Gibbous, 86% of the Moon is Illuminated
Dec 2
Waning Gibbous
Dec 6
Last Quarter
Dec 13
New
Dec 20
First Quarter
Dec 28
Full

Hourly Weather History & Observations

Time (EST) Temp. Windchill Dew Point Humidity Pressure Visibility Wind Dir Wind Speed Gust Speed Precip Events Conditions
12:15 AM 44.6 °F - 37.4 °F 76% 30.35 in 10.0 mi Calm Calm - N/A   Clear
12:35 AM 44.6 °F - 37.4 °F 76% 30.35 in 10.0 mi Calm Calm - N/A   Clear
1:15 AM 44.6 °F - 37.4 °F 76% 30.34 in 10.0 mi Calm Calm - N/A   Clear
1:55 AM 44.6 °F - 37.4 °F 76% 30.35 in 10.0 mi Calm Calm - N/A   Clear
2:15 AM 44.6 °F - 37.4 °F 76% 30.35 in 10.0 mi Calm Calm - N/A   Scattered Clouds
2:35 AM 44.6 °F - 37.4 °F 76% 30.34 in 10.0 mi Calm Calm - N/A   Mostly Cloudy
2:55 AM 44.6 °F - 39.2 °F 81% 30.34 in 10.0 mi Calm Calm - N/A   Scattered Clouds
3:15 AM 44.6 °F - 37.4 °F 76% 30.34 in 10.0 mi Calm Calm - N/A   Mostly Cloudy
3:55 AM 44.6 °F - 41.0 °F 87% 30.35 in 10.0 mi Calm Calm - N/A   Overcast
4:15 AM 46.4 °F - 41.0 °F 81% 30.33 in 10.0 mi Calm Calm - N/A   Overcast
4:35 AM 44.6 °F - 39.2 °F 81% 30.33 in 10.0 mi Calm Calm - N/A   Mostly Cloudy
4:55 AM 44.6 °F 43.1 °F 39.2 °F 81% 30.32 in 10.0 mi South 3.5 mph - N/A   Scattered Clouds
5:15 AM 44.6 °F 43.1 °F 41.0 °F 87% 30.32 in 10.0 mi SSW 3.5 mph - N/A   Clear
5:35 AM 44.6 °F 43.1 °F 41.0 °F 87% 30.33 in 10.0 mi SSW 3.5 mph - N/A   Clear
5:55 AM 44.6 °F 43.1 °F 41.0 °F 87% 30.33 in 10.0 mi SSE 3.5 mph - N/A   Clear
6:15 AM 44.6 °F - 41.0 °F 87% 30.33 in 10.0 mi Calm Calm - N/A   Clear
6:35 AM 44.6 °F - 41.0 °F 87% 30.33 in 10.0 mi Calm Calm - N/A   Clear
6:55 AM 44.6 °F - 41.0 °F 87% 30.33 in 10.0 mi Calm Calm - N/A   Clear
7:15 AM 44.6 °F - 41.0 °F 87% 30.33 in 10.0 mi Calm Calm - N/A   Clear
7:35 AM 44.6 °F - 41.0 °F 87% 30.34 in 10.0 mi Calm Calm - N/A   Clear
7:55 AM 44.6 °F - 41.0 °F 87% 30.34 in 10.0 mi Calm Calm - N/A   Clear
8:15 AM 44.6 °F - 41.0 °F 87% 30.35 in 10.0 mi Calm Calm - N/A   Clear
8:35 AM 44.6 °F - 41.0 °F 87% 30.34 in 10.0 mi Calm Calm - N/A   Clear
8:55 AM 44.6 °F 43.1 °F 41.0 °F 87% 30.34 in 10.0 mi SSE 3.5 mph - N/A   Clear
9:15 AM 46.4 °F - 41.0 °F 81% 30.34 in 10.0 mi Calm Calm - N/A   Clear
9:35 AM 48.2 °F - 42.8 °F 82% 30.34 in 10.0 mi Calm Calm - N/A   Clear
9:55 AM 48.2 °F - 41.0 °F 76% 30.34 in 10.0 mi Calm Calm - N/A   Clear
10:15 AM 50.0 °F - 42.8 °F 76% 30.34 in 10.0 mi Calm Calm - N/A   Clear
10:35 AM 51.8 °F - 41.0 °F 67% 30.34 in 10.0 mi Calm Calm - N/A   Clear
10:55 AM 53.6 °F - 41.0 °F 62% 30.34 in 10.0 mi South 3.5 mph - N/A   Clear
11:15 AM 53.6 °F - 41.0 °F 62% 30.33 in 10.0 mi South 3.5 mph - N/A   Clear
11:35 AM 59.0 °F - 41.0 °F 51% 30.32 in 10.0 mi South 4.6 mph - N/A   Clear
11:55 AM 59.0 °F - 39.2 °F 48% 30.31 in 10.0 mi South 3.5 mph - N/A   Scattered Clouds
12:35 PM 60.8 °F - 35.6 °F 39% 30.29 in 10.0 mi Calm Calm - N/A   Clear
12:55 PM 60.8 °F - 35.6 °F 39% 30.28 in 10.0 mi West 3.5 mph - N/A   Clear
1:15 PM 60.8 °F - 35.6 °F 39% 30.27 in 10.0 mi West 6.9 mph - N/A   Clear
1:35 PM 60.8 °F - 35.6 °F 39% 30.26 in 10.0 mi NW 4.6 mph - N/A   Clear
1:55 PM 60.8 °F - 35.6 °F 39% 30.26 in 10.0 mi Calm Calm - N/A   Clear
2:15 PM 59.0 °F - 41.0 °F 51% 30.25 in 10.0 mi SSE 5.8 mph - N/A   Clear
2:35 PM 59.0 °F - 41.0 °F 51% 30.25 in 10.0 mi Calm Calm - N/A   Scattered Clouds
2:55 PM 59.0 °F - 41.0 °F 51% 30.25 in 10.0 mi Calm Calm - N/A   Scattered Clouds
3:15 PM 59.0 °F - 41.0 °F 51% 30.24 in 10.0 mi South 3.5 mph - N/A   Scattered Clouds
3:35 PM 59.0 °F - 41.0 °F 51% 30.24 in 10.0 mi SSE 3.5 mph - N/A   Scattered Clouds
3:55 PM 59.0 °F - 41.0 °F 51% 30.25 in 10.0 mi Calm Calm - N/A   Scattered Clouds
4:35 PM 57.2 °F - 42.8 °F 59% 30.25 in 10.0 mi South 4.6 mph - N/A   Overcast
4:55 PM 55.4 °F - 42.8 °F 63% 30.25 in 10.0 mi South 3.5 mph - N/A   Mostly Cloudy
5:15 PM 55.4 °F - 42.8 °F 63% 30.26 in 10.0 mi South 3.5 mph - N/A   Scattered Clouds
5:35 PM 55.4 °F - 42.8 °F 63% 30.26 in 10.0 mi Calm Calm - N/A   Scattered Clouds
5:55 PM 53.6 °F - 42.8 °F 67% 30.26 in 10.0 mi Calm Calm - N/A   Clear
6:15 PM 53.6 °F - 42.8 °F 67% 30.26 in 10.0 mi SSW 3.5 mph - N/A   Clear
6:35 PM 53.6 °F - 42.8 °F 67% 30.26 in 10.0 mi SW 3.5 mph - N/A   Clear
7:15 PM 53.6 °F - 42.8 °F 67% 30.27 in 10.0 mi Calm Calm - N/A   Clear
7:55 PM 51.8 °F - 42.8 °F 71% 30.27 in 10.0 mi Calm Calm - N/A   Clear
8:15 PM 51.8 °F - 42.8 °F 71% 30.27 in 10.0 mi Calm Calm - N/A   Clear
8:55 PM 51.8 °F - 42.8 °F 71% 30.28 in 10.0 mi Calm Calm - N/A   Clear
9:55 PM 53.6 °F - 42.8 °F 67% 30.27 in 10.0 mi Calm Calm - N/A   Clear
10:15 PM 51.8 °F - 42.8 °F 71% 30.27 in 10.0 mi Calm Calm - N/A   Clear
10:35 PM 51.8 °F - 42.8 °F 71% 30.27 in 10.0 mi Calm Calm - N/A   Clear